sat.trackr.live / text

‹ back to catalog

STARLINK-35446

NORAD 66432 · 2025-259L

PAYLOAD ACTIVE UNKNOWN

§ Identity

Operator
Country
US
Launch date
2025-11-11
Launch site
AFETR
Launch vehicle
Mass (kg)
RCS (m²)

Purposes: comms

External: N2YO · Heavens-Above · Gunter

§ Orbital elements

Epoch: 2026-09-20T08:12:57.636000Z

Period
94.27 min
Inclination
42.9979°
Eccentricity
0.0000594
Mean motion
15.27583099 rev/d
Perigee alt
482.6 km
Apogee alt
483.4 km
Semi-major
6,861.2 km
B*
3.0981e-4
RAAN
254.8129°
Arg perigee
290.1257°
Mean anomaly
69.9531°
Rev number
4,926

§ Raw data

STARLINK-354461 66432U 25259L   26263.34233375  .00008274  00000+0  30981-3 0  99972 66432  42.9979 254.8129 0000594 290.1257  69.9531 15.27583099 49261

JSON: /api/v1/satellites/66432 · /tle

For live sub-satellite position, see the globe view (requires WebGL).

§ Visibility from observer

Set your observer location to see the next 7 days of passes ≥ 10°. The values pass through the URL so the page stays shareable.

No JS? Fill the form by hand. The geolocation button needs JavaScript.